Location: Harwich
(41.6860°N, 70.0760°W)
Time: 10:47:22
(UTC-04:00)

Daily predictions for brighter satellites

Satellite Brightness Start Highest point End
(mag) Time Altitude Azimuth Time Altitude Azimuth Time Altitude Azimuth
Cosmos 2074 Rocket 4.4 18:50:03 10° SSE 18:55:47 41° E 19:01:32 10° NNE
Cosmos 2228 3.2 18:51:37 10° S 18:55:51 53° E 19:00:04 10° NNE
Cosmos 1271 Rocket 4.1 18:58:02 10° SSW 19:01:40 44° WNW 19:05:22 10° N
ALOS 2.3 18:57:08 10° SSE 19:01:44 63° ENE 19:06:21 10° N
Cosmos 1709 Rocket 4.4 18:55:59 10° SSW 19:02:20 75° W 19:08:45 10° N
FALCON 9 R/B 2.4 19:01:00 10° SW 19:03:12 25° SSE 19:07:05 10° ESE
ISS -2.7 19:02:10 10° SSW 19:04:58 27° SE 19:07:47 10° ENE
YAOGAN 1 4.4 19:05:17 10° SSW 19:09:16 36° W 19:13:17 10° NNW
USA 234 3.8 19:08:40 10° SSE 19:15:07 61° SW 19:21:37 10° NW
Cosmos 1943 Rocket 4.0 19:11:18 10° NW 19:16:16 34° WSW 19:21:16 10° SSW
Cosmos 1812 Rocket 4.4 19:14:28 10° SSE 19:18:21 30° E 19:22:15 10° NNE
Thor Agena Rocket 3.5 19:16:03 10° NNE 19:21:18 73° ESE 19:26:27 10° S
BREEZE-M DEB 4.1 19:12:17 10° WNW 19:22:29 62° SW 19:25:41 10° SE
Cosmos 1805 4.0 19:19:49 10° SSE 19:23:15 30° E 19:26:42 10° NNE
FREGAT/IRIS 2.5 19:21:41 10° SSE 19:24:41 66° ENE 19:27:42 10° N
GP-B 4.1 19:22:55 10° NNE 19:26:40 26° E 19:30:22 10° SE
Resurs 01 Rocket 2.7 19:24:20 13° ESE 19:27:17 26° ENE 19:30:55 10° NNE
Cosmos 2058 Rocket 3.7 19:23:45 10° SSW 19:28:03 61° W 19:32:25 10° N
CZ-2D R/B 4.1 19:28:42 14° SE 19:31:20 30° ENE 19:34:43 10° N
Cosmos 372 Rocket 4.0 19:30:30 10° NNW 19:35:43 60° ENE 19:40:53 10° SSE
Cosmos 2184 Rocket 4.0 19:29:24 10° S 19:35:43 83° E 19:42:07 10° N
Cosmos 1697 Rocket 4.3 19:35:54 10° N 19:39:31 17° NE 19:41:12 15° ENE
Cosmos 1125 Rocket 3.5 19:35:15 10° NNW 19:40:34 75° ENE 19:45:52 10° SSE
Cosmos 1980 Rocket 4.2 19:39:52 10° NNE 19:41:28 11° NE 19:42:51 10° ENE
Meteor 1-24 Rocket 3.9 19:35:45 10° N 19:41:44 85° W 19:47:29 10° S
Geosat 4.1 19:41:12 10° SSE 19:46:13 76° WSW 19:51:17 10° NNW
Envisat 3.6 19:44:02 20° ESE 19:46:50 35° ENE 19:51:25 10° N
Milstar 3 Cent rocket 3.7 19:45:06 10° SW 19:48:29 17° S 19:50:16 14° SSE
ATLAS 2AS CENTAUR R/B 3.7 19:41:39 10° NNW 19:48:58 36° NE 19:53:09 22° E
Cosmos 1356 3.4 19:45:42 10° N 19:49:10 58° ENE 19:51:09 23° SSE
Okean 3 Rocket 4.4 19:47:13 10° NNE 19:51:10 30° ENE 19:51:51 28° E
H-2A R/B 3.5 19:57:21 10° S 20:00:59 51° W 20:04:41 10° NNW
Cosmos 1544 3.9 19:58:39 10° SSW 20:02:09 51° W 20:05:43 10° N
SJ-6B 3.4 19:58:42 10° S 20:02:37 58° W 20:06:30 10° NNW
Cosmos 1953 2.2 20:04:27 10° S 20:08:26 62° E 20:12:27 10° NNE
Cosmos 540 Rocket 4.3 20:05:30 10° SW 20:10:28 52° WNW 20:15:29 10° N
Cosmos 962 Rocket 4.5 20:08:01 10° S 20:14:16 66° E 20:20:36 10° NNE
Cosmos 292 Rocket 3.7 20:10:42 10° SSW 20:15:34 83° ESE 20:20:27 10° NNE
SL-27 R/B 2.9 20:12:21 10° SSW 20:15:56 62° WNW 20:19:34 10° NNE
BREEZE-M DEB (TANK) 4.4 20:13:21 10° WNW 20:17:47 53° NNE 20:25:06 25° E
Cosmos 1076 Rocket 3.8 20:14:36 10° N 20:18:24 46° ENE 20:18:24 46° ENE
SJ 16-02 1.7 20:18:21 10° NNW 20:22:41 62° WSW 20:24:56 27° S
BREEZE M DEB (TANK) 3.7 20:18:47 10° WNW 20:22:58 24° NNW 20:23:46 22° N
Cosmos 1674 2.5 20:21:53 10° N 20:25:39 84° W 20:25:44 83° SW
Cosmos 2369 3.6 20:27:27 10° NNW 20:33:07 69° ENE 20:34:09 56° ESE
Resurs 1-3 3.9 20:33:13 38° S 20:34:47 66° WSW 20:39:10 10° NNW
MOS 1-B Rocket 4.0 20:37:06 21° S 20:41:16 73° WSW 20:46:54 10° NNW
ISS -2.1 20:38:14 10° W 20:40:35 33° WNW 20:40:35 33° WNW
BREEZE-M DEB (TANK) 3.0 20:38:36 10° WSW 20:47:57 75° NNW 20:48:25 67° NNE
Spot 2 Rocket 4.2 20:50:59 31° SSW 20:53:05 51° W 20:58:00 10° NNW
Cosmos 2341 Rocket 4.4 20:50:29 10° SSW 20:56:36 61° W 21:02:46 10° N
Meteor 2-21 4.4 20:54:21 23° S 20:58:21 84° W 21:04:31 10° N
Cosmos 2082 Rocket 4.2 21:03:56 16° NNE 21:03:56 16° NNE 21:04:59 10° NNE
Resurs 01 Rocket 3.3 21:01:55 23° SW 21:03:39 30° W 21:07:32 10° NW
Cosmos 1959 Rocket 4.3 21:05:20 84° E 21:05:20 84° E 21:11:37 10° N
Cosmos 2278 3.8 21:01:14 10° NNW 21:06:52 66° WSW 21:07:09 65° SW
ERS-1 Rocket 4.4 21:12:21 29° N 21:12:21 29° N 21:14:52 10° N
Meteor 2-15 Rocket 4.3 21:06:07 10° N 21:12:13 82° W 21:12:14 82° W
Cosmos 2366 rocket 4.0 21:14:27 72° NNE 21:14:27 72° NNE 21:20:04 10° N
Cosmos 1656 3.9 21:10:55 10° NNW 21:16:08 64° W 21:16:08 64° W
Cosmos 2322 Rocket 4.2 21:12:57 10° N 21:14:57 17° NNE 21:14:57 17° NNE
Cosmos 2218 Rocket 4.0 21:20:07 76° W 21:20:13 76° W 21:26:26 10° N
Cosmos 1697 Rocket 3.2 21:18:32 10° NNW 21:22:57 56° NNW 21:22:57 56° NNW
Cosmos 1980 Rocket 3.2 21:21:04 10° NNW 21:24:38 38° N 21:24:38 38° N
ATLAS 2AS CENTAUR R/B 3.1 21:32:40 10° NW 21:40:32 65° WSW 21:40:36 65° WSW
H-2A R/B 4.3 21:57:09 18° N 21:57:09 18° N 21:58:27 10° N
SL-16 R/B 4.2 21:51:08 10° N 21:53:07 21° N 21:53:07 21° N
